7 * 24
多渠道服务支持
STARLINK-31871是美国SpaceX星链(Starlink)互联网星座项目中的一颗卫星,于2024年5月6日发射入轨,属于星链v2版本卫星。该卫星运行于近地轨道,配备星间激光通信设备,可为全球用户提供低延迟、高速率的卫星互联网接入服务,支持手机直连等功能。它的入轨进一步扩充了星链星座规模,增强了星座覆盖范围与通信稳定性,既为民用提供普惠互联网服务,也可支持特殊场景下的通信需求。
美国
(US)
| 数据来源 | 国际轨道数据 |
| 星历时间: | 2026-09-11T20:21:14+0800 13小时前 查看轨道信息 |
| 半长轴: | 6861.245km |
| 偏心率: | 0.0001535 |
| 轨道倾角: | 43.000° |
| 近地点辐角 | 269.672° |
| 升交点赤经 | 72.262° |
| 平近点角 | 90.396° |
| 近地点: | 482.054km |
| 远地点: | 484.162km |
| 周期: | 94.268分钟 |
| 每日圈数: | 15.275605 |